sat.trackr.live / text

‹ back to catalog

STARLINK-4686

NORAD 53715 · 2022-107R

PAYLOAD ACTIVE UNKNOWN

§ Identity

Operator
Country
US
Launch date
2022-09-05
Launch site
AFETR
Launch vehicle
Mass (kg)
RCS (m²)

Purposes: comms

External: N2YO · Heavens-Above · Gunter

§ Orbital elements

Epoch: 2026-09-20T21:01:33.871872Z

Period
93.85 min
Inclination
53.1606°
Eccentricity
0.0001282
Mean motion
15.34385652 rev/d
Perigee alt
461.9 km
Apogee alt
463.6 km
Semi-major
6,840.9 km
B*
1.6569e-5
RAAN
82.2492°
Arg perigee
81.1693°
Mean anomaly
278.9455°
Rev number
22,409

§ Raw data

STARLINK-46861 53715U 22107R   26263.87608648  .00000183  00000+0  16569-4 0  99912 53715  53.1606  82.2492 0001282  81.1693 278.9455 15.34385652224091

JSON: /api/v1/satellites/53715 · /tle

For live sub-satellite position, see the globe view (requires WebGL).

§ Visibility from observer

Set your observer location to see the next 7 days of passes ≥ 10°. The values pass through the URL so the page stays shareable.

No JS? Fill the form by hand. The geolocation button needs JavaScript.